Regional Weather Roundup
Issued by NWS

Home | Current Version | Previous Version | Text Only | Print | Product List | Glossary On
Versions: 1 2 3 4 5 6 7 8 9 10 11 12 13 14 15 16 17 18 19 20 21 22 23 24 25 26 27 28 29 30 31 32 33 34 35 36 37 38 39 40 41 42 43 44 45 46 47 48 49 50
000
ASUS43 KMKX 030600
RWRWI

WISCONSIN REGIONAL WEATHER ROUNDUP
NATIONAL WEATHER SERVICE MILWAUKEE/SULLIVAN WI
1200 AM CST SAT DEC 03 2016

NOTE: "FAIR" INDICATES FEW OR NO CLOUDS BELOW 12,000 FEET WITH NO
SIGNIFICANT WEATHER AND/OR OBSTRUCTIONS TO VISIBILITY.

WIZ001-002-006>008-014>016-023>028-030700-
NORTHWEST WISCONSIN

CITY           SKY/WX    TMP DP  RH WIND       PRES   REMARKS
SUPERIOR ARPT  CLOUDY    30  25  81 W6        30.28S WCI  24
ASHLAND        CLOUDY    29  24  82 VRB6      30.28R WCI  23
6HR MIN TEMP:  29; 6HR MAX TEMP:  30;

HAYWARD        CLOUDY    29  23  78 W5        30.26S WCI  24
6HR MIN TEMP:  28; 6HR MAX TEMP:  29;

SIREN          CLOUDY    29  24  81 W5        30.28S WCI  24
CUMBERLAND     CLOUDY    28  23  80 W5        30.27R WCI  23
RICE LAKE      CLOUDY    30  24  78 CALM      30.29S
6HR MIN TEMP:  30; 6HR MAX TEMP:  30;

CHETEK         CLOUDY    30  23  76 W5        30.28S WCI  25
LADYSMITH      CLOUDY    29  24  81 W5        30.29R WCI  24
EAU CLAIRE     NOT AVBL
MENOMONIE      CLOUDY    31  27  83 W5        30.30S WCI  27
6HR MIN TEMP:  31; 6HR MAX TEMP:  32;

NEW RICHMOND   CLOUDY    30  25  81 W3        30.29S
OSCEOLA        CLOUDY    30  25  80 CALM      30.33R
$$

WIZ003>005-009-010-017-018-030700-
NORTH CENTRAL WISCONSIN

CITY           SKY/WX    TMP DP  RH WIND       PRES   REMARKS
MANITOWISH WTR CLOUDY    27  27 100 W5        30.22S WCI  22
ARBOR VITAE    CLOUDY    29  27  92 W5        30.22S WCI  24
WOODRUFF       CLOUDY    29  27  92 W5        30.22S WCI  24
RHINELANDER    CLOUDY    29  27  92 W6        30.23S WCI  23
6HR MIN TEMP:  29; 6HR MAX TEMP:  30;

EAGLE RIVER    CLOUDY    29  28  97 CALM      30.21S
LAND O LAKES   CLOUDY    29  28  93 CALM      30.22S
PHILLIPS       CLOUDY    26  23  89 NW3       30.24F
6HR MIN TEMP:  26; 6HR MAX TEMP:  28;

TOMAHAWK       CLOUDY    28  23  81 CALM      30.25S
MEDFORD        CLOUDY    27  22  82 NW5       30.25S WCI  22
MERRILL        CLOUDY    29  23  78 CALM      30.26S
6HR MIN TEMP:  29; 6HR MAX TEMP:  31;

$$

WIZ029-030-035-036-043>047-030700-
CENTRAL WISCONSIN

CITY           SKY/WX    TMP DP  RH WIND       PRES   REMARKS
WAUSAU         CLOUDY    29  22  75 W7        30.26R WCI  22
6HR MIN TEMP:  29; 6HR MAX TEMP:  31;

MOSINEE        CLOUDY    30  25  80 W7        30.28R WCI  23
MARSHFIELD     CLOUDY    29  23  78 W8        30.26S WCI  21
6HR MIN TEMP:  29; 6HR MAX TEMP:  30;

STEVENS POINT  CLOUDY    28  22  75 NW6       30.29R WCI  22
WAUPACA        CLOUDY    33  25  72 W9        30.30R WCI  25
WAUTOMA        CLOUDY    31  24  75 NW5       30.30S WCI  26
6HR MIN TEMP:  31; 6HR MAX TEMP:  32;

WISC RAPIDS    CLOUDY    31  24  75 W6        30.30S WCI  25
6HR MIN TEMP:  30; 6HR MAX TEMP:  31;

CAMP DOUGLAS   NOT AVBL
$$

WIZ011>013-019>022-031-037>040-048>050-030700-
NORTHEAST WISCONSIN

CITY           SKY/WX    TMP DP  RH WIND       PRES   REMARKS
ANTIGO         CLOUDY    29  25  84 CALM      30.24S
SHAWANO        CLOUDY    34  27  75 CALM      30.27S
6HR MIN TEMP:  34; 6HR MAX TEMP:  36;

OCONTO         CLOUDY    34  28  77 W5        30.26S WCI  30
STURGEON BAY   CLOUDY    36  28  73 NW8       30.25S WCI  30
6HR MIN TEMP:  36; 6HR MAX TEMP:  36;

GREEN BAY      CLOUDY    35  29  78 W8        30.27S WCI  29
6HR MIN TEMP:  35; 6HR MAX TEMP:  36;

MANITOWOC      NOT AVBL
APPLETON       CLOUDY    32  25  74 W10       30.26S WCI  24
CLINTONVILLE   CLOUDY    32  27  80 W5        30.27S WCI  27
OSHKOSH        CLOUDY    31  24  75 W6        30.29S WCI  25
6HR MIN TEMP:  31; 6HR MAX TEMP:  32;

$$

WIZ032>034-041-042-053>061-030700-
SOUTHWEST WISCONSIN

CITY           SKY/WX    TMP DP  RH WIND       PRES   REMARKS
LA CROSSE      CLOUDY    33  21  61 W6        30.32S WCI  28
6HR MIN TEMP:  33; 6HR MAX TEMP:  35;

SPARTA         CLOUDY    32  24  72 W5        30.31F WCI  27
VIROQUA        CLOUDY    29  22  75 W5        30.29S WCI  24
6HR MIN TEMP:  29; 6HR MAX TEMP:  30;

BOSCOBEL       CLOUDY    33  23  66 SW3       30.33F
6HR MIN TEMP:  33; 6HR MAX TEMP:  34;

PRAIRIE DU CHI CLOUDY    32  21  65 NW3       30.34S
PLATTEVILLE    CLOUDY    31  25  77 NW5       30.31F WCI  26
$$

WIZ056-057-062-063-064-067-068-030700-
SOUTH CENTRAL WISCONSIN

CITY           SKY/WX    TMP DP  RH WIND       PRES   REMARKS
REEDSBURG      CLOUDY    31  24  76 W5        30.30F WCI  26
6HR MIN TEMP:  30; 6HR MAX TEMP:  31;

BARABOO/DELLS  CLOUDY    31  23  73 W5        30.30S WCI  26
LONE ROCK      NOT AVBL
MINERAL POINT  CLOUDY    32  27  80 W5        30.30S WCI  27
MADISON        CLOUDY    30  22  72 W6        30.31S WCI  24
6HR MIN TEMP:  30; 6HR MAX TEMP:  32;

MIDDLETON      CLOUDY    32  25  75 NW6       30.31S WCI  26
WATERTOWN      CLOUDY    31  25  78 NW3       30.31R
MONROE         CLOUDY    32  23  69 NW5       30.30S WCI  27
JANESVILLE     CLOUDY    32  25  74 W5        30.31F WCI  27
$$

WIZ051-052-058>065-066-070>072-030700-
SOUTHEAST WISCONSIN

CITY           SKY/WX    TMP DP  RH WIND       PRES   REMARKS
MILWAUKEE      CLOUDY    33  22  63 VRB7      30.31R WCI  27
6HR MIN TEMP:  33; 6HR MAX TEMP:  35;

WAUKESHA       CLOUDY    30  23  74 W6        30.32R WCI  24
MILWAUKEE/TIMM CLOUDY    32  21  64 W8        30.32R WCI  25
RACINE         CLOUDY    32  22  66 W6        30.33R WCI  26
6HR MIN TEMP:  32; 6HR MAX TEMP:  34;

BURLINGTON     CLOUDY    32  24  73 CALM      30.31S
KENOSHA        CLOUDY    32  24  72 NW6       30.31S WCI  26
6HR MIN TEMP:  32; 6HR MAX TEMP:  34;

FOND DU LAC    CLOUDY    32  22  66 W7        30.30R WCI  26
6HR MIN TEMP:  32; 6HR MAX TEMP:  33;

SHEBOYGAN      CLOUDY    32  25  75 W9        30.28S WCI  24
6HR MIN TEMP:  32; 6HR MAX TEMP:  33;

WEST BEND      CLOUDY    32  27  80 W5        30.29R WCI  27
JUNEAU         CLOUDY    30  23  75 W6        30.31R WCI  24
$$

LSZ147-162-030700-
LAKE SUPERIOR

STATION/POSITION TIME  TEMP    WIND        PRES    WAVE
                       AIR SEA DIR/SP/G            HT/PER
                 (UTC) (F)     (DEG/KT/KT) (MB)    (FT/S)
DEVILS ISLAND    0500   33     290/ 10/ 12 1025.4R
PORT WING        0540   31     200/  5/  7 1025.1R
SAXON HARBOR     0530   30     200/  6/ 10 1024.7S
$$

LMZ867-665-643>646-030700-
LAKE MICHIGAN

STATION/POSITION TIME  TEMP    WIND        PRES    WAVE
                       AIR SEA DIR/SP/G            HT/PER
                 (UTC) (F)     (DEG/KT/KT) (MB)    (FT/S)
CHAMBERS ISLAND  0540   36     290/  4/  8 1023.7S
NORTHPORT PIER   0540   38     310/ 10/ 13 1023.7S
SISTER BAY       0538   38     320/ 14/ 16   N/A
ALGOMA LAKESHORE 0551          270/  4/  6   N/A
KEWAUNEE LAKESHO 0530   35     280/  5/  8 1024.2R
SHEBOYGAN LAKESH 0500   33     260/ 11/ 12 1025.9R
PORT WASHINGTON  0540   33     300/  4/  7 1027.1R
MILWAUKEE LAKESH 0530   33     280/  7/ 10   N/A
S MID LAKE BUOY  0450   37 49  300/ 10/ 12 1026.0R   2/ 5
KENOSHA   LAKESH 0500   33     310/  7/  9 1026.4
$$

TC  - TEMPERATURE IN CELSIUS
VSB - VISIBILITY IN STATUTE MILES
WCI - WIND CHILL INDEX
HX  - HEAT INDEX




USA.gov is the U.S. government's official web portal to all federal, state and local government web resources and services.